STARLINK-11394, 62218

Orbit data source: Space-Track

STARLINK-11394, 62218 is a payload satellite owned by SpaceX/Seattle (US) in LEO that was launched on Thu, 05 Dec 2024 UTC via an FALCON 9 launch vehicle from the Air Force Western Test Range (AFWTR). Payload-class satellites include a variety of spacecraft equipped with specific instruments for various scientific and technological missions. These include communications satellites like Starlink; space stations such as the ISS; scientific satellites like the Hubble; Earth observation satellites from companies like Planet Labs, Umbra, and HawkEye 360; GPS; miniature CubeSats for education and research; and military/defense satellites.

Loading next visibility...
Identifier
62218, 2024-231A
Orbit
LEO
Country
Flag of USUS
Related business
Manufacturer
SpaceX/Seattle
Mission
Operational Commercial Communications
Bus & Motor
STARLINK V2MD, Unknown motor
Mass
960 kg wet, ~910 kg dry
Launch date (UTC)
2024-12-05 (9 months ago)
Launch vehicle
FALCON 9
Launch site
Air Force Western Test Range (AFWTR)
Object type
Payload
Rocket body
Debris
Shape & HBR
Box + 2 Pan, 14.5 m
Radar Cross Section
36.964 m², Large (>1 m²)

Expand to show TLE details & history
Last TLE update: 22 hours ago

TLE from 22 hours ago
0 STARLINK-11394
1 62218U 24231A   25257.46761300  .00096323  00000-0  78998-3 0  9996
2 62218  53.1564 249.9912 0001183  71.4410 288.6736 15.69732254 45734
Epoch: 2025-09-14T11:13Z
TLE epoch observation values (Epoch: 2025-09-14T11:13:21.763Z)
Latitude
-0.00003°
Longitude
87.9643°
Altitude
360.323 km
Speed
7.694 km/s
True Right ascension
16h 39m 57s
True Declination
0° 00' 00"
Sunlit
Object was in daylight at epoch
Visualization orbit readout
Latitude
Unknown
Longitude
Unknown
Altitude
Unknown
Speed
Unknown
Apparent Right ascension
Unknown
Apparent Declination
Unknown
Sunlit
N/A
Visualization observer readout
Local Sidereal Time
02:14:56
Azimuth
Unknown
Elevation
Unknown
Doppler factor
Unknown
Orbital elements
Apogee altitude
360.721 km
Perigee altitude
359.127 km
Semi-major axis
6,738.061 km
Eccentricity
0.00012
Inclination
53.1564°
RAAN
249.9912°
Arg. of periapsis
71.441°
True anomaly
288.66076°
Mean anomaly
288.6736°
Eccentric anomaly
288.66718°
Mean motion
3.92411 °/min
Orbital period
91.74 mins
BSTAR
0.00078998
Loading maneuver chart data...
Computing Atmospheric mass density...
Loading historical data...
Loading historical data...
Loading historical data...
Loading historical data...
Loading historical data...
Loading historical data...
Loading historical data...

Documentation

Showing up to 5 results
|